Regional Weather Roundup
Issued by NWS Lake Charles, LA

Home | Current Version | Previous Version | Text Only | Print | Product List | Glossary On
Versions: 1 2 3 4 5 6 7 8 9 10 11 12 13 14 15 16 17 18 19 20 21 22 23 24 25 26
000
ASUS44 KLCH 271210
RWRLCH
REGIONAL WEATHER ROUNDUP
NATIONAL WEATHER SERVICE LAKE CHARLES LA
700 AM CDT FRI MAY 27 2016

Note: "fair" indicates few or no clouds below 12,000 feet with no
significant weather and/or obstructions to visibility.


ACROSS SOUTHEAST TEXAS

CITY           SKY/WX    TMP DP  RH WIND       PRES   REMARKS
BEAUMONT       CLOUDY    78  75  90 SE13      29.85R
BEAUMONT CITY  TSTM      70  67  88 NW8       29.88R
ORANGE         CLOUDY    78  74  86 S8        29.88R
JASPER         RAIN      68  67  94 S5        29.88S
$$

ACROSS CENTRAL LOUISIANA

CITY           SKY/WX    TMP DP  RH WIND       PRES   REMARKS
LEESVILLE      CLOUDY    75  74  96 S9        29.90R
FULLERTON      CLOUDY    76  72  87 MISG      29.88R
ALEXANDRIA INT LGT RAIN  75  74  96 S9        29.87R
ESLER FIELD    MOCLDY    77  73  87 S8        29.88R
DERIDDER       CLOUDY    75  74  95 CALM      29.91R
OAKDALE        CLOUDY    76  74  96 SE3       29.90R
OPELOUSAS      FAIR      75  72  89 SE8       29.90R
$$

ACROSS SOUTHWEST AND SOUTH CENTRAL LOUISIANA

CITY           SKY/WX    TMP DP  RH WIND       PRES   REMARKS
SULPHUR        CLOUDY    79  75  87 SE9       29.88R
LAKE CHARLES   MOCLDY    77  74  90 S12       29.87R
CHENNAULT INT  NOT AVBL
CAMERON PHI    PTSUNNY   79  75  89 S18G26    29.89R
DEQUINCY       CLOUDY    75  75 100 SE3       29.88R
JENNINGS       PTSUNNY   75  73  94 SE9       29.89R
LAFAYETTE      CLOUDY    77  71  82 VRB3      29.90S
NEW IBERIA     CLOUDY    76  71  85 SE8       29.91S
ABBEVILLE      FAIR      76  73  88 SE10      29.90S
PATTERSON      MOCLDY    76  73  91 SE8       29.93R
SALT POINT       N/A     78  74  87 VRB3      29.90S
$$

SELECTED SITES ACROSS THE REGION

CITY           SKY/WX    TMP DP  RH WIND       PRES   REMARKS
HOUSTON BUSH   CLOUDY    66  66 100 NE8       29.83R
HOUSTON HOBBY  CLOUDY    72  68  87 E5        29.81S
GALVESTON      CLOUDY    79  77  94 SE16      29.83S
COLLEGE STAT   CLOUDY    67  66  97 SE8       29.77S
CONROE         CLOUDY    66  64  93 E6          N/A
HUNTSVILLE     CLOUDY    66  64  93 VRB6      29.80R
LUFKIN         LGT RAIN  68  65  90 E13       29.74F
SHREVEPORT     LGT RAIN  71  67  87 S10       29.85R
MONROE         PTSUNNY   76  73  91 SE7       29.89R
NATCHEZ MS     PTSUNNY   73  70  88 S12G21    29.91R
BATON ROUGE    CLOUDY    75  71  87 E6        29.94R
N.O. INTL ARPT CLOUDY    78  71  79 SE7       29.95R
SLIDELL        CLOUDY    77  73  87 SE6       29.98R
$$

MARINE REPORTS

STATION/POSITION TIME  SKY/WX   TEMP    WIND        PRES    VSBY
                                AIR SEA DIR/SP/G
                 (UTC)          (F)     (DEG/KT/KT) (MB)    (MI)
BUOY 30 S HIGH I 1150            80 80  160/ 16/ 19 1009.6R
WVE H/P(F/S)=  5/ 7

SEA RIM ST PARK  1200            80     170/ 12/ 15 1012.0R
PORT ARTHUR      1100               79  150/ 10/ 14 1009.8F
SABINE PASS N    1100            80 80  160/ 15/ 20 1010.6F
TEXAS POINT      NOT AVBL
CALCASIEU PASS   1100            79 81  170/ 19/ 23 1009.3F
LK CHARLES BEACH 1100            77 80              1010.8F
MARSH ISLAND     1100            81                   N/A
FRESH WATER LOCK 1100            79 82  140/ 14/ 18 1012.7R
AMERADA PASS     1100            78 75  130/  5/  9 1012.8F
$$




USA.gov is the U.S. government's official web portal to all federal, state and local government web resources and services.